www.pogodaiklimat.ru

Погода и климат >> Архив погоды >> Филиппины >> Dipolog


ПОГОДА в Dipolog

  • Прогноз погоды в Dipolog
  • Монитор погоды в Dipolog
  • Климат города

АРХИВ ПОГОДЫ в Dipolog

Время (UTC), дата Ветер
(напр.,м/с)
 
Видим.   Явления Облачность Т
(С)
Тd
(С)
f
(%)
Тe
(С)
Тes
(С)
Комфортность P
(гПа)
Po
(гПа)
Тmin
(С)
Tmax
(С)
R
(мм)
R24
(мм)
S
(см)
06 8.08 З 3 18 км мгла {туман} 9/3 540 м
[Cu med, cong Ac As]
+32.7 +25.5 66 +47 +51 опасность
перегрева
1006.6 1007.0
09 8.08 Ю 2 18 км мгла {туман} 9/3 540 м
[Cu med, cong Ac As]
+30.4 +25.2 74 +44 +44 опасность
перегрева
1006.6 1007.0
12 8.08 З 2 18 км {туман} 9/3 540 м
[Cu med, cong Ac As]
+28.0 +24.8 83 +40 +40 очень
душно
1009.4 1009.0 +33.7
15 8.08 штиль 0 18 км 9/3 540 м
[Cu med, cong Ac As]
+27.2 +24.5 85 +38 +38 очень
душно
1010.6 1011.0
18 8.08 штиль 0 18 км 9/3 540 м
[Cu med, cong Ac As]
+26.0 +24.4 91 +36 +36 очень
душно
1008.5 1009.0
21 8.08 ЮВ 1 18 км 9/3 540 м
[Cu med, cong Ac As]
+25.0 +23.5 91 +34 +34 очень
душно
1008.4 1008.0
00 9.08 Ю 2 18 км мгла {туман} 10/3 540 м
[Cu med, cong Cs]
+27.6 +24.4 83 +39 +43 очень
душно
1010.0 1010.0 +24.4
03 9.08 Ю 3 18 км мгла {туман} 10/3 540 м
[Cu med, cong Cs]
+32.0 +24.9 66 +45 +55 опасность
перегрева
1010.4 1010.0
06 9.08 З 3 18 км мгла {туман} 10/3 540 м
[Cu med, cong Cs]
+32.2 +25.1 66 +46 +53 опасность
перегрева
1008.7 1009.0
09 9.08 ЮЗ 5 18 км мгла {туман} 10/3 540 м
[Cu med, cong Ac As]
+30.0 +25.0 75 +43 +43 опасность
перегрева
1008.7 1009.0
12 9.08 З 2 18 км {туман} 10/3 540 м
[Cu med, cong Ac As]
+27.2 +25.1 88 +39 +39 очень
душно
1010.0 1010.0 +33.0
15 9.08 Ю 1 18 км 9/3 540 м
[Cu med, cong Ac As]
+26.1 +24.6 91 +37 +37 очень
душно
1010.2 1010.0
18 9.08 штиль 0 18 км 9/3 540 м
[Cu med, cong Ac As]
+25.8 +24.2 91 +36 +36 очень
душно
1009.4 1009.0
21 9.08 Ю 1 18 км 9/3 540 м
[Cu med, cong Ac As]
+25.0 +23.9 94 +34 +34 очень
душно
1009.3 1009.0
00 10.08 ЮВ 1 18 км мгла {туман} 10/3 540 м
[Cu med, cong Ac As]
+27.4 +23.9 81 +38 +39 очень
душно
1011.4 1011.0 +24.5
03 10.08 Ю 2 18 км мгла {туман} 9/3 540 м
[Cu med, cong Cs]
+33.2 +23.7 58 +45 +57 опасность
перегрева
1010.4 1010.0
06 10.08 З 3 18 км мгла {туман} 10/3 540 м
[Cu med, cong Cs]
+33.2 +23.7 58 +45 +52 опасность
перегрева
1008.4 1008.0
09 10.08 З 5 18 км мгла {туман} 10/3 540 м
[Cu med, cong Ac As]
+30.4 +23.7 67 +41 +41 опасность
перегрева
1008.9 1009.0
12 10.08 З 6 15 км {туман} 10/3 540 м
[Cu med, cong Cs]
+28.1 +24.8 82 +40 +40 очень
душно
1010.6 1011.0 +34.7
15 10.08 штиль 0 15 км 10/3 540 м
[Cu med, cong Cs]
+27.0 +24.3 85 +38 +38 очень
душно
1010.8 1011.0
18 10.08 Ю 4 18 км 9/3 540 м
[Cu med, cong Ac As]
+26.2 +24.1 88 +36 +36 очень
душно
1008.6 1009.0
21 10.08 штиль 0 18 км 9/3 540 м
[Cu med, cong Ac As]
+25.6 +24.0 91 +35 +35 очень
душно
1008.1 1008.0
00 11.08 Ю 1 20 км мгла {туман} 6/3 540 м
[Cu med, cong Ac As]
+28.3 +23.6 76 +39 +43 очень
душно
1009.3 1009.0 +25.1
03 11.08 З 3 18 км мгла {туман} 9/3 540 м
[Cu med, cong Ac As]
+32.7 +23.9 60 +44 +49 опасность
перегрева
1009.0 1009.0
06 11.08 СЗ 4 18 км мгла {туман} 9/3 540 м
[Cu med, cong Ac As]
+30.6 +25.1 73 +44 +47 опасность
перегрева
1007.1 1007.0
09 11.08 З 5 18 км осадки на расстоянии {туман} 10/3 500 м
[Cb cap Cs]
+31.1 +25.2 71 +45 +45 опасность
перегрева
1006.8 1007.0
12 11.08 З 3 18 км {туман} 9/3 540 м
[Cu med, cong Cs]
+28.2 +25.4 85 +41 +41 опасность
перегрева
1009.4 1009.0 +34.0
15 11.08 З 2 18 км 9/3 540 м
[Cu med, cong Cs]
+26.9 +24.6 87 +38 +38 очень
душно
1009.5 1010.0
18 11.08 штиль 0 18 км 9/3 540 м
[Cu med, cong Cs]
+25.8 +24.2 91 +36 +36 очень
душно
1007.7 1008.0
21 11.08 Ю 1 18 км 9/3 540 м
[Cu med, cong Ac As]
+25.8 +24.4 92 +36 +36 очень
душно
1007.7 1008.0
00 12.08 Ю 2 20 км мгла {туман} 5/3 540 м
[Cu med, cong Cs]
+28.4 +23.0 73 +38 +43 очень
душно
1008.5 1009.0 +25.0
03 12.08 З 4 20 км мгла {туман} 5/3 540 м
[Cu med, cong Cs]
+34.7 +23.9 54 +46 +56 опасность
перегрева
1008.1 1008.0
06 12.08 З 3 20 км мгла {туман} 4/3 540 м
[Cu med, cong Cs]
+35.4 +25.4 56 +49 +58 опасность
перегрева
1006.0 1006.0
09 12.08 З 4 20 км мгла {туман} 5/3 540 м
[Cu med, cong Ac As]
+32.2 +25.1 66 +46 +46 опасность
перегрева
1006.0 1006.0
12 12.08 ЮВ 1 20 км {туман} 6/3 540 м
[Cu med, cong Ac As]
+29.4 +25.1 78 +43 +43 опасность
перегрева
1008.8 1009.0 +36.1
15 12.08 штиль 0 20 км 6/3 540 м
[Cu med, cong Ac As]
+27.2 +24.8 87 +39 +39 очень
душно
1009.5 1010.0
18 12.08 ЮВ 2 20 км 6/3 540 м
[Cu med, cong Ac As]
+26.1 +24.4 90 +36 +36 очень
душно
1008.4 1008.0
21 12.08 ЮВ 1 20 км 6/3 540 м
[Cu med, cong Ac As]
+25.4 +24.3 94 +35 +35 очень
душно
1008.2 1008.0
00 13.08 ЮВ 1 20 км 6/3 540 м
[Cu med, cong Ac As]
+25.4 +24.3 94 +35 +39 очень
душно
1008.2 1008.0
03 13.08 С 3 20 км мгла {туман} 5/3 540 м
[Cu med, cong Ci fib]
+33.4 +24.4 59 +46 +57 опасность
перегрева
1009.5 1010.0
06 13.08 З 5 20 км мгла {туман} 6/3 540 м
[Cu med, cong Ac As]
+32.7 +26.1 68 +48 +52 опасность
перегрева
1007.2 1007.0
09 13.08 З 6 20 км мгла {туман} 8/3 540 м
[Cu med, cong Ac As]
+30.8 +26.2 77 +47 +47 опасность
перегрева
1007.1 1007.0
12 13.08 ЮВ 1 20 км {туман} 6/3 540 м
[Cu med, cong Ac As]
+29.0 +24.9 79 +42 +42 опасность
перегрева
1009.4 1009.0 +34.5
15 13.08 Ю 1 18 км 8/3 540 м
[Cu med, cong Ac As]
+27.0 +24.1 84 +37 +37 очень
душно
1010.1 1010.0
18 13.08 Ю 1 18 км 8/3 540 м
[Cu med, cong Ac As]
+26.3 +23.2 83 +35 +35 очень
душно
1008.8 1009.0
21 13.08 Ю 1 20 км 6/3 540 м
[Cu med, cong Ac As]
+25.7 +23.4 87 +35 +35 очень
душно
1008.7 1009.0
00 14.08 Ю 1 20 км мгла {туман} 6/3 540 м
[Cu med, cong Ac As]
+29.2 +23.6 72 +40 +44 очень
душно
1010.0 1010.0 +25.5
03 14.08 СЗ 3 20 км мгла {туман} 8/3 540 м
[Cu med, cong Cs]
+33.8 +24.1 57 +46 +56 опасность
перегрева
1010.0 1010.0
06 14.08 З 4 20 км мгла {туман} 6/3 540 м
[Cu med, cong Cs]
+34.0 +26.0 63 +50 +56 опасность
перегрева
1007.2 1007.0
09 14.08 З 2 20 км мгла {туман} 6/3 500 м
[Cu med, cong Ac As]
+32.6 +26.2 69 +49 +49 опасность
перегрева
1007.0 1007.0
12 14.08 Ю 1 20 км {туман} 5/3 540 м
[Cu med, cong Cs]
+28.4 +24.7 80 +40 +40 очень
душно
1008.8 1009.0 +35.3
15 14.08 Ю 1 20 км 9/3 540 м
[Cu med, cong Ac As]
+27.2 +24.4 85 +38 +38 очень
душно
1009.8 1010.0
18 14.08 Ю 1 20 км 8/3 540 м
[Cu med, cong Ac As]
+26.6 +23.9 85 +37 +37 очень
душно
1008.9 1009.0
21 14.08 Ю 1 20 км 8/3 540 м
[Cu med, cong Ac As]
+25.8 +23.4 87 +35 +35 очень
душно
1008.9 1009.0
00 15.08 Ю 2 20 км мгла {туман} 3/3 540 м
[Cu med, cong]
+28.6 +24.1 77 +40 +45 очень
душно
1010.7 1011.0 +25.2

 

Местоположение метеостанции Dipolog (Филиппины): широта 8.60 долгота 123.35 высота над уровнем моря 5 м.

В архиве по умолчанию представлена погода в Dipolog за последнюю неделю. Архивные данные за месяц целиком и за предыдущие месяцы, начиная с января 2011 года, Вы можете получить, выбрав интересующий диапазон дат из раскрывающегося списка и нажав кнопку "Ввод!".


*Определитесь, кто Вы:
робот инопланетянин человек

Внимание! Время в таблицах - всемирное. Для получения местного времени необходимо прибавить поправку, которая в Dipolog равна 8 ч.

Смотрите также архив погоды в соседних городах и на ближайших метеорологических станциях:

Погода в Dumaguete (Филиппины) (78 км)
Погода в Lumbia Airport (Филиппины) (104 км)
Погода в Tagbilaran (Филиппины) (124 км)
Погода в Cotobato (Филиппины) (186 км)
Погода в Malaybalay (Филиппины) (197 км)
Погода в Mactan (Филиппины) (201 км)
Погода в Maasin (Филиппины) (235 км)
Погода в Zamboanga (Филиппины) (237 км)
Погода в Butuan (Филиппины) (240 км)
Погода в Surigao (Филиппины) (271 км)

Пояснения к столбцам:

Ветер - указаны скорость ветра в м/с - средняя за 10 мин, порывы в срок и между сроками (в фигурных скобках) и направление, откуда дует ветер: С - северный, СВ - северо-восточный, В - восточный, ЮВ - юго-восточный, Ю - южный, ЮЗ - юго-западный, З - западный, СЗ - северо-западный.
Видимость - горизонтальная дальность видимости в метрах или километрах. При видимости от 1 до 10 км при отсутствии осадков обычно наблюдается дымка, при ухудшении видимости до 1 км и менее - туман. В сухую погоду видимость может ухудшаться дымом, пылью или мглою.
Явления - указаны атмосферные явления, наблюдавшиеся в срок или в последний час перед сроком; фигурными скобками обозначены явления, наблюдавшиеся между сроками (за 1-3 часа до срока); квадратными скобками обозначены град или гололедные отложения с указанием их диаметра в мм.
Облачность - указаны через наклонную черту общая и нижняя облачность в баллах и высота нижней границы облаков в метрах; квадратными скобками обозначены формы облаков: Ci - перистые, Cs - перисто-слоистые, Cc - перисто-кучевые, Ac - высококучевые, As - высокослоистые, Sc - слоисто-кучевые, Ns - слоисто-дождевые, Cu - кучевые, Cb - кучево-дождевые. Подробнее классификацию облаков см. в Атласе облаков (PDF).
T - Температура воздуха - температура, измеренная на высоте 2 м над землей.
Td - Температура точки росы - температура, при понижении до которой содержащийся в воздухе водяной пар достигнет насыщения.
f - Относительная влажность воздуха - влажноcть воздуха, измеренная на высоте 2 м над землей.
Te - Эффективная температура - температура, которую ощущает одетый по сезону человек в тени. Характеристика душности погоды. При расчете учитывается влияние влажности воздуха и скорости ветра на теплоощущения человека.
Tes - Эффективная температура на солнце - температура, которую ощущает человек, с поправкой на солнечный нагрев. Характеристика знойности погоды. Зависит от высоты солнца над горизонтом, облачности и скорости ветра. Ночью, в пасмурную погоду, а также при ветре 12 м/с и более поправка равна нулю.
P - Атмосферное давление - приведенное к уровню моря атмосферное давление.
Po - Атмосферное давление - измеренное на уровне метеостанции атмосферное давление.
Tmin - Минимальная температура - минимум температуры воздуха на высоте 2 м над землей.
Tmax - Максимальная температура - максимум температуры воздуха на высоте 2 м над землей.
R - Количество осадков - Количество выпавших осадков за период времени, мм. При наведении курсора мыши на число - период времени, за который выпало указанное количество осадков.
R24 - Количество осадков - Количество выпавших осадков за 24 часа, мм.
S - Снежный покров - Высота снежного покрова, см. При наведении курсора мыши на число - состояние снежного покрова и степень покрытия местности в баллах.